Theta_e
347 340 334 322 307 303 297 303 306 308 311 313 319 320 316 317 309 301 326 335 341 340 346 350 353 352 351 351 351 350 350 350 349 348 347 346 345 345 345 345 345 346 345 344 342 341 339 339 340
342 337 326 316 302 297 299 307 305 308 312 315 317 316 315 316 328 327 324 339 342 344 345 346 353 352 351 351 351 350 350 350 350 349 348 348 347 346 345 346 346 346 346 346 345 345 345 341 340
338 332 317 308 301 297 299 307 307 309 312 314 312 315 315 316 328 329 333 342 343 341 343 346 353 352 352 351 351 351 350 351 351 350 350 349 349 349 348 347 346 346 346 347 347 347 347 347 343
331 319 314 305 301 304 305 308 310 310 314 314 313 310 320 329 328 333 340 342 339 339 342 347 353 354 353 353 352 352 351 351 351 351 351 351 350 351 350 350 349 348 348 348 348 349 349 348 347
317 314 304 303 304 308 310 311 310 311 313 312 314 312 315 327 333 336 336 340 339 340 343 349 355 355 355 354 353 353 352 352 352 352 352 351 350 349 348 345 345 346 348 348 349 350 352 352 350
312 310 301 298 304 310 312 313 312 312 311 314 314 315 318 328 329 336 340 341 345 342 340 340 347 355 356 356 355 355 354 354 353 353 352 350 348 347 347 345 344 345 345 345 345 348 351 353 353
309 306 302 302 304 308 311 314 310 311 315 317 319 314 320 324 328 334 338 340 339 337 336 336 337 344 351 357 357 356 355 355 353 353 351 349 348 345 343 344 344 343 343 344 345 346 346 348 346
308 306 301 304 304 304 313 314 314 318 319 328 327 315 315 323 329 329 331 334 333 335 338 337 339 341 341 348 354 355 355 354 351 347 346 344 341 342 343 343 344 344 345 344 345 346 347 347 346
307 303 300 302 306 305 314 315 323 326 321 324 326 324 325 329 330 329 328 332 333 332 330 331 331 334 340 344 345 347 350 347 343 341 342 336 334 335 338 340 341 342 343 343 344 345 347 345 342
301 299 302 309 312 312 319 318 318 319 319 321 324 327 330 331 331 331 331 329 327 325 325 325 327 328 335 339 337 339 337 336 335 334 333 332 331 333 333 334 337 337 340 340 340 342 344 342 337
305 300 310 313 315 320 319 317 323 319 317 323 322 325 329 331 331 329 325 324 323 324 323 323 323 324 326 333 333 332 331 331 331 331 330 329 329 328 327 325 326 329 334 332 333 334 337 335 334
308 314 314 317 320 320 317 320 315 321 321 326 329 330 329 328 329 326 322 321 321 320 320 320 320 320 321 326 332 330 329 328 327 327 328 325 325 323 322 320 321 322 325 328 329 330 331 331 330
311 316 321 321 319 318 320 315 315 319 326 328 328 330 327 329 328 327 324 320 319 318 319 318 318 317 318 320 327 329 327 324 323 321 321 321 318 317 317 316 316 317 319 322 325 328 328 329 330
313 317 318 321 319 319 314 314 316 320 327 327 327 328 328 331 328 325 319 315 315 316 316 317 315 316 317 319 324 326 325 323 319 318 318 317 315 314 313 314 314 314 315 317 320 320 326 327 327
316 313 313 313 317 317 319 312 310 323 326 323 327 328 330 329 327 322 320 316 315 315 316 316 316 314 315 317 319 320 320 320 318 317 317 317 314 312 312 312 313 313 313 314 315 316 319 319 318
306 303 299 309 314 316 313 304 316 319 319 320 326 327 328 327 325 324 321 318 316 315 315 315 316 314 313 313 313 315 316 316 317 315 315 315 316 314 312 311 312 313 313 312 312 313 313 314 314
300 297 300 306 314 315 311 306 316 319 316 318 325 327 326 323 323 322 321 318 316 315 315 313 314 312 312 312 312 312 313 313 314 314 314 315 316 316 312 312 312 312 312 312 311 311 311 312 312
297 299 301 303 311 313 311 310 315 319 317 319 322 325 324 322 322 322 321 321 318 316 315 312 312 311 312 312 312 312 312 312 313 313 315 315 315 316 314 313 312 312 311 311 311 310 311 311 311
303 303 304 307 312 309 309 310 316 318 319 318 319 321 321 322 325 322 321 322 319 317 314 312 310 309 310 310 310 309 309 310 311 312 314 315 315 316 314 313 312 311 310 310 311 310 309 310 311
307 304 302 307 310 309 307 307 311 314 315 315 315 320 321 321 321 321 319 319 318 317 315 312 310 308 308 309 309 309 309 310 310 311 312 314 314 315 315 312 311 311 309 309 309 309 308 309 310
304 303 303 304 309 310 306 303 305 312 315 317 317 319 322 321 320 319 317 316 316 316 315 313 310 308 308 309 309 309 309 310 309 310 310 311 313 314 314 312 311 310 309 308 308 309 308 305 308
300 308 308 306 300 295 305 292 301 307 308 312 315 315 318 320 321 319 317 315 315 315 316 313 311 309 309 309 308 307 306 305 307 307 308 310 312 312 313 311 310 309 309 308 308 310 308 307 305
304 310 306 304 300 299 300 294 297 305 305 308 311 313 316 318 320 318 316 316 317 316 313 312 309 308 308 309 308 307 307 307 308 308 308 309 310 311 311 311 309 308 309 309 308 308 307 307 306
311 305 302 300 296 291 296 296 297 301 305 308 312 314 317 315 317 316 315 316 316 313 312 311 309 308 309 309 309 308 308 308 308 308 307 307 308 309 309 309 308 308 308 308 307 307 307 307 307
304 298 291 290 290 289 299 297 298 305 308 312 314 314 316 314 313 311 311 314 314 312 311 310 309 308 309 309 309 309 308 308 308 308 307 307 307 307 308 308 307 307 308 308 307 306 306 307 308
303 298 292 287 287 290 299 294 301 309 311 314 315 314 312 311 311 310 310 313 313 312 310 310 308 308 308 308 308 309 309 309 309 308 308 308 307 308 308 308 307 308 308 307 306 305 306 305 305
302 297 299 295 295 292 295 301 306 309 310 309 307 308 309 310 310 309 309 312 312 311 310 309 308 308 309 308 308 308 309 310 309 309 309 308 308 310 309 307 306 307 307 306 305 304 304 305 304
302 302 295 293 288 287 293 296 298 304 307 306 305 306 306 309 310 309 309 311 312 311 310 308 308 308 308 308 308 309 309 310 310 310 310 308 308 308 308 307 306 306 306 306 305 305 305 305 306
299 298 296 295 295 290 289 293 306 306 308 307 305 305 307 309 310 309 309 309 310 309 307 308 308 307 307 307 308 309 309 310 311 310 309 309 308 308 307 307 306 306 305 305 305 305 306 306 307
301 298 296 292 292 295 293 294 308 309 310 310 306 307 307 310 309 309 308 308 307 306 305 307 307 307 308 308 308 308 309 309 310 310 310 309 309 309 308 306 306 306 305 305 305 304 305 305 305
Wind_Speed
10 5 3 3 6 7 3 5 2 1 2 3 3 4 5 4 3 4 4 5 3 6 5 3 6 5 3 3 3 2 2 1 1 1 1 1 2 3 3 3 3 4 5 5 5 5 3 4 6
7 3 2 2 8 6 5 7 4 3 5 6 8 5 8 4 3 2 3 2 7 7 5 3 4 3 1 1 1 1 1 1 2 3 4 5 5 6 6 6 6 6 7 8 9 9 8 4 6
8 1 3 5 5 3 2 4 3 1 0 4 4 6 5 6 6 1 4 8 8 8 6 3 2 2 2 2 2 2 3 4 5 6 7 8 8 8 9 10 9 10 10 10 10 11 11 10 8
4 1 5 7 6 2 1 3 2 2 7 7 3 7 6 3 7 8 8 9 9 6 4 4 1 3 5 4 4 4 5 5 6 8 9 10 10 10 11 11 11 11 12 13 13 13 12 11 9
2 4 6 5 3 1 2 2 3 3 4 6 4 3 4 5 8 7 7 8 7 4 2 3 3 6 6 6 5 6 6 7 8 9 10 11 11 11 12 13 14 15 14 14 14 14 14 12 10
4 4 6 2 3 5 4 5 3 5 5 4 7 4 3 4 10 7 8 8 6 5 5 6 7 7 7 7 7 6 7 8 8 9 11 12 11 11 12 12 13 14 13 14 14 13 14 13 12
6 4 7 5 1 5 3 3 4 3 8 8 3 5 2 8 8 7 7 7 7 7 7 7 7 9 7 7 7 7 8 9 8 10 12 13 14 14 14 14 13 12 12 14 15 14 13 12 13
5 6 4 3 4 4 4 4 2 8 6 5 7 4 4 3 7 8 7 7 7 6 9 9 7 8 5 4 8 10 10 9 13 16 15 14 13 14 14 14 14 14 14 14 15 15 15 14 13
3 6 3 5 3 2 6 5 4 5 10 9 8 5 3 5 7 9 9 12 8 10 11 10 11 9 7 6 8 10 14 15 13 11 13 9 5 7 11 12 15 14 14 15 15 17 14 13 6
5 4 3 1 5 14 17 12 6 9 9 8 9 12 10 11 11 12 11 10 9 10 9 9 9 11 9 9 8 8 8 7 7 7 6 6 7 8 9 11 16 17 16 15 14 15 13 10 2
4 3 5 6 12 17 15 22 5 7 8 4 9 7 7 10 10 13 10 7 5 4 8 11 11 9 9 8 5 4 4 5 6 9 7 6 6 5 5 5 6 7 13 6 9 7 4 3 2
9 7 7 4 5 9 8 7 8 12 4 4 5 8 2 9 11 8 8 4 5 9 10 10 9 8 8 5 5 4 5 5 4 5 7 6 4 6 6 5 7 6 6 8 7 5 6 5 5
14 7 10 20 20 12 14 5 10 5 9 11 6 5 4 7 12 10 6 5 5 11 7 8 9 8 6 6 4 5 5 4 4 6 7 6 6 5 5 5 5 6 6 6 6 7 5 5 6
10 14 10 6 9 7 8 4 3 1 2 9 1 2 1 11 10 6 6 6 8 6 6 7 8 7 6 5 6 5 3 4 5 5 5 7 5 5 5 5 6 6 6 6 5 6 6 5 5
12 16 7 3 2 4 3 10 5 7 7 6 4 4 4 10 7 6 5 6 5 3 4 7 7 8 8 8 7 5 5 5 6 5 7 8 6 6 5 5 5 5 6 7 7 6 4 4 4
7 4 3 2 3 3 5 3 4 5 5 4 1 6 5 8 4 6 5 4 3 5 7 7 7 7 8 7 5 4 5 4 5 5 5 7 8 8 6 5 6 6 6 5 5 4 5 5 5
4 5 2 3 3 3 5 3 5 4 3 3 2 2 8 5 6 5 5 2 3 6 7 8 7 8 6 6 5 5 6 6 4 4 5 8 7 6 4 4 5 6 5 5 6 3 3 3 6
9 5 2 2 4 7 5 2 7 4 3 4 3 2 6 4 5 5 5 3 5 7 6 7 4 6 6 5 4 5 4 4 4 5 6 8 5 7 6 6 6 6 5 6 6 5 4 3 4
8 7 7 2 3 7 2 4 5 1 4 6 4 4 4 5 4 4 4 2 5 5 4 6 7 7 5 4 3 3 3 3 4 5 7 7 8 9 8 6 7 7 6 6 6 4 5 3 5
7 11 4 4 3 6 2 3 2 4 4 6 5 6 5 4 5 4 4 3 1 1 3 6 6 6 4 3 1 1 2 2 2 3 5 6 9 9 8 6 7 7 6 7 6 6 4 3 4
2 7 7 7 5 7 4 3 2 1 3 3 3 3 6 8 8 6 6 5 3 1 1 2 5 6 4 4 2 3 3 2 4 4 3 5 6 7 7 8 6 7 5 5 5 5 6 4 3
2 7 8 14 4 2 1 4 4 3 5 5 8 7 8 8 7 6 7 6 4 2 1 1 3 3 4 6 5 5 2 2 2 3 3 4 6 7 7 7 7 6 5 6 5 6 3 3 4
1 10 8 5 6 5 1 3 6 2 6 9 8 9 9 9 10 9 7 7 5 4 3 2 2 4 4 4 4 2 2 1 2 2 5 6 5 5 7 7 7 6 5 5 6 7 7 3 3
10 9 9 6 4 3 3 4 5 5 8 5 6 8 11 8 8 6 6 7 5 3 3 3 2 2 3 3 3 3 3 4 4 4 3 4 3 4 6 7 6 5 6 6 5 5 6 7 4
7 6 4 3 4 5 4 1 9 6 8 9 12 8 8 8 8 7 8 7 6 6 5 4 2 0 2 3 3 3 3 3 3 3 3 4 3 3 5 5 6 5 6 6 6 6 7 7 5
6 7 7 3 3 3 1 4 7 6 6 5 6 7 7 10 10 9 7 7 7 7 6 5 4 2 2 3 5 4 3 2 2 2 3 3 3 3 5 5 5 6 6 6 6 4 5 6 6
4 2 4 9 3 2 2 7 5 3 1 1 6 7 9 6 4 7 7 7 7 6 7 6 5 3 3 4 4 4 4 3 3 4 3 2 3 3 4 4 5 5 6 7 6 5 6 6 7
3 7 4 5 2 2 5 5 7 6 8 6 7 9 8 7 5 5 6 7 6 6 5 5 5 5 4 4 3 3 4 3 3 2 3 3 4 4 4 4 5 5 6 7 6 5 6 7 6
1 1 8 6 4 5 2 8 8 10 12 12 10 9 11 9 8 7 6 5 6 4 4 5 5 5 5 4 2 3 3 4 3 2 3 3 3 3 3 3 4 5 5 6 6 6 6 6 6
1 3 5 7 4 1 4 9 1 6 7 9 9 10 7 7 7 7 7 6 6 6 5 5 5 5 6 4 3 4 3 3 4 4 3 2 3 2 2 2 3 3 4 5 5 6 5 6 7
Wind_Direction
137 136 111 53 52 61 351 323 260 142 45 329 84 115 112 46 105 172 314 183 99 109 125 172 182 182 161 125 107 90 94 109 85 38 26 12 350 334 327 323 322 322 320 317 319 327 354 1 359
140 148 50 81 75 49 313 320 43 0 128 125 77 55 51 53 36 42 39 56 91 95 63 36 200 192 170 167 139 160 253 289 315 318 317 316 320 318 314 308 305 306 307 308 312 314 317 335 342
158 37 71 77 99 128 202 311 48 47 308 10 78 61 44 340 356 309 335 89 81 62 51 8 232 243 220 224 238 259 285 310 320 319 318 317 318 314 309 306 306 306 304 300 299 302 307 315 326
154 63 27 74 102 244 297 298 54 357 24 34 44 57 82 87 331 5 52 81 72 55 38 327 268 269 257 250 264 283 294 305 308 310 316 313 308 309 303 298 294 295 296 296 296 296 294 294 304
52 49 54 57 19 2 80 22 351 15 55 15 34 63 57 21 9 56 71 73 69 49 339 329 250 255 265 267 274 282 300 307 309 314 314 314 316 311 308 311 311 308 299 295 293 290 290 289 283
51 106 62 59 355 339 44 56 3 56 78 41 42 68 56 334 26 10 66 75 72 46 7 349 328 278 256 268 276 286 294 301 307 312 320 316 321 324 327 325 322 310 306 304 297 293 289 286 285
114 86 156 141 94 6 55 50 57 6 49 30 51 68 356 24 24 42 60 73 58 24 7 351 343 349 300 271 283 297 303 307 321 338 342 350 350 4 357 348 338 330 316 301 290 277 279 275 279
102 84 103 102 130 36 9 69 18 40 39 335 1 43 34 20 44 60 48 56 36 12 24 4 355 3 16 338 326 324 326 331 3 20 17 22 17 3 360 353 346 352 333 311 284 273 267 271 260
117 66 138 132 130 164 14 79 42 53 58 40 35 31 83 50 71 56 42 35 16 23 17 13 13 12 3 20 3 5 17 28 27 25 27 27 25 16 14 2 359 354 349 344 327 299 272 267 236
85 91 126 180 148 92 65 60 68 66 65 50 75 45 43 57 51 59 49 55 32 18 8 16 9 13 10 24 19 31 39 34 32 26 33 45 44 32 20 4 3 3 354 347 350 330 303 301 318
31 73 131 5 96 106 93 61 59 116 59 62 29 26 47 70 68 72 64 45 32 13 27 12 15 10 16 22 20 28 35 46 34 33 27 32 37 27 14 358 0 350 353 351 338 351 347 342 281
92 46 108 197 127 98 95 141 67 86 106 114 84 339 68 78 77 88 72 42 23 41 27 17 15 14 9 1 23 31 51 48 37 27 32 31 30 20 10 6 356 353 345 339 341 344 349 347 309
91 96 66 108 100 86 116 78 88 97 143 134 138 316 32 95 80 64 63 51 41 47 15 9 18 10 1 19 10 30 24 52 63 38 32 31 33 27 7 2 358 354 347 346 344 347 348 345 348
113 99 105 96 86 62 94 44 128 323 162 103 154 23 153 80 80 76 54 50 50 44 25 11 20 15 12 25 32 33 20 11 48 45 30 35 37 24 13 2 359 358 348 340 345 353 352 360 13
95 99 109 50 103 140 41 37 36 119 99 51 280 102 97 86 82 78 70 70 69 50 33 20 25 16 29 22 24 23 19 22 35 28 25 27 32 24 13 4 358 347 342 348 353 356 345 352 350
87 64 89 341 171 34 96 266 185 191 114 335 5 158 118 81 114 87 77 67 45 59 38 32 26 29 37 33 22 21 19 21 28 28 20 21 23 21 9 6 359 341 347 347 354 346 334 347 352
345 181 148 178 62 110 60 207 182 138 160 310 311 173 128 154 103 107 90 59 56 57 34 28 20 31 38 41 37 31 28 33 22 28 26 20 14 11 5 359 343 344 348 351 347 335 346 326 341
190 142 116 172 20 50 44 41 151 154 194 286 123 217 154 167 144 146 116 53 52 50 34 30 10 24 28 39 26 21 31 18 19 16 18 10 359 8 9 354 353 351 350 348 347 335 330 298 323
121 107 114 71 105 83 18 98 118 200 260 283 234 210 220 145 141 129 116 126 71 42 31 24 29 6 18 17 5 5 355 342 6 10 4 3 2 8 4 349 348 354 354 341 347 329 334 322 342
104 117 92 69 56 92 156 96 159 180 222 233 230 197 179 173 168 169 165 163 146 150 35 22 20 24 24 31 340 347 343 357 334 332 356 0 7 1 353 347 345 347 343 351 357 4 333 311 2
101 134 169 139 123 51 108 354 292 176 245 266 230 219 191 178 185 191 196 180 181 157 46 35 28 20 32 30 34 15 15 1 354 356 343 346 356 353 354 350 347 341 345 344 342 0 11 336 319
118 139 121 125 107 154 27 265 284 256 276 217 213 205 187 187 191 191 195 173 184 185 167 53 31 35 33 25 46 49 48 3 318 305 309 332 356 355 353 349 343 340 338 352 346 354 351 349 357
63 101 99 94 92 106 256 69 262 118 267 249 233 206 202 196 190 195 193 174 183 158 184 162 64 42 38 40 49 41 30 323 306 327 343 349 343 354 349 348 341 343 339 342 356 358 3 8 348
154 80 46 49 74 46 243 157 268 194 207 236 220 199 195 186 185 186 177 156 161 173 179 170 107 47 27 19 3 16 13 356 4 347 341 333 326 333 343 341 337 334 346 354 350 351 13 13 12
92 77 33 340 8 215 201 107 245 235 212 208 197 194 186 179 170 174 175 163 170 200 195 184 189 111 352 341 317 325 325 324 328 321 314 327 331 330 331 336 344 344 345 351 357 7 12 9 7
180 150 151 234 211 249 233 226 254 263 256 234 173 176 150 176 171 186 173 169 177 205 197 202 190 231 296 309 295 320 317 298 303 314 318 323 317 310 325 335 346 348 354 358 6 8 11 10 14
210 154 159 104 27 35 259 286 299 38 53 147 157 152 175 153 186 181 159 177 187 201 209 198 191 228 250 265 289 311 317 305 284 302 307 314 314 317 335 348 349 348 355 7 5 11 15 13 18
132 144 75 38 127 298 287 281 243 198 214 208 188 180 178 182 147 164 181 180 196 202 211 190 193 217 230 243 257 300 312 302 279 292 306 311 312 332 347 357 351 358 2 2 3 7 7 21 16
103 35 49 105 122 158 285 267 220 207 190 195 202 190 185 179 171 173 174 188 197 189 205 210 200 223 234 231 246 285 305 301 278 284 294 294 299 327 353 353 359 3 4 3 8 15 14 16 15
111 161 132 116 211 144 152 274 92 264 206 174 195 192 185 172 168 170 173 179 175 199 214 220 216 225 228 228 233 252 274 283 281 283 289 302 318 328 339 348 358 353 356 1 14 21 16 12 2